Orbital Elements at Epoch 2459200.5 (2020-Dec-17.0) TDB
Reference: JPL 19 (heliocentric ecliptic J2000)
Element | Value | Uncertainty (1-sigma) | Units |
e | .191196098137278 | 5.1013e-08 | |
a | 2.642598892707778 | 9.5202e-09 | au |
q | 2.13734429548016 | 1.3777e-07 | au |
i | 5.758642174209178 | 3.9633e-06 | deg |
node | 75.68495500389008 | 4.8414e-05 | deg |
peri | 328.7354261217909 | 4.9631e-05 | deg |
M | 342.4769191725881 | 1.151e-05 | deg |
tp | 2459276.875358767349 (2021-Mar-03.37535877) | 5.0311e-05 | TDB |
period | 1569.080769931406 4.30 | 8.4791e-06 2.321e-08 | d yr |
n | .229433695765539 | 1.2398e-09 | deg/d |
Q | 3.147853489935396 | 1.134e-08 | au |
|
| | Orbit Determination Parameters
Additional Information
|